IRIDIUM 106 1 41917U 17003A 26073.21030363 .00000089 00000+0 24818-4 0 9992 2 41917 86.3971 128.2730 0002183 106.5178 253.6257 14.34217262479599 IRIDIUM 103 1 41918U 17003B 26073.19761862 .00000094 00000+0 26516-4 0 9998 2 41918 86.3972 128.1785 0001979 88.7876 271.3547 14.34217463479613 IRIDIUM 109 1 41919U 17003C 26073.20396167 -.00000024 00000+0 -15704-4 0 9995 2 41919 86.3973 128.2334 0002080 94.9893 265.1540 14.34217265479588 IRIDIUM 102 1 41920U 17003D 26073.24201747 .00000020 00000+0 -30967-7 0 9996 2 41920 86.3969 128.1434 0002282 95.8342 264.3114 14.34217589479675 IRIDIUM 105 1 41921U 17003E 26073.13743920 .00000115 00000+0 34004-4 0 9996 2 41921 86.3915 96.6315 0002244 92.3690 267.7763 14.34401553481519 IRIDIUM 104 1 41922U 17003F 26073.18493403 .00000045 00000+0 90028-5 0 9991 2 41922 86.3971 128.2084 0002243 86.6331 273.5122 14.34217756479650 IRIDIUM 114 1 41923U 17003G 26073.19127325 .00000183 00000+0 58404-4 0 9994 2 41923 86.3970 128.1891 0002102 91.0856 269.0580 14.34218860479634 IRIDIUM 108 1 41924U 17003H 26073.14979687 .00000072 00000+0 18651-4 0 9993 2 41924 86.3909 96.5156 0002383 93.7877 266.3591 14.34217464481489 IRIDIUM 112 1 41925U 17003J 26073.24836007 .00000066 00000+0 16352-4 0 9992 2 41925 86.3967 128.0120 0002246 91.8036 268.3417 14.34217684479660 IRIDIUM 111 1 41926U 17003K 26073.23567419 -.00000011 00000+0 -10843-4 0 9991 2 41926 86.3970 128.0852 0002006 94.8873 265.2552 14.34217446479643 IRIDIUM 113 1 42803U 17039A 26073.28541895 .00001263 00000+0 44398-3 0 9999 2 42803 86.4031 1.8322 0002264 78.3469 281.7981 14.34213077457585 IRIDIUM 123 1 42804U 17039B 26073.25711747 .00000042 00000+0 78211-5 0 9999 2 42804 86.3983 33.2951 0002017 85.5266 274.6160 14.34217814456345 IRIDIUM 120 1 42805U 17039C 26073.27906485 .00000021 00000+0 37436-6 0 9999 2 42805 86.4019 1.6297 0002162 89.2647 270.8797 14.34217731457572 IRIDIUM 115 1 42806U 17039D 26073.27398436 .00000418 00000+0 11841-3 0 9990 2 42806 86.4556 1.7478 0001887 91.5213 268.6205 14.43281211460576 IRIDIUM 118 1 42807U 17039E 26073.28883059 .00000171 00000+0 53870-4 0 9997 2 42807 86.3983 33.2800 0002198 83.7878 276.3568 14.34218081456348 IRIDIUM 117 1 42808U 17039F 26073.30785788 -.00000058 00000+0 -27596-4 0 9993 2 42808 86.3980 33.2308 0001938 85.9339 274.2079 14.34217261456372 IRIDIUM 126 1 42809U 17039G 26073.26346000 -.00000023 00000+0 -15282-4 0 9990 2 42809 86.3981 33.2991 0001992 82.6560 277.4862 14.34217446456349 IRIDIUM 124 1 42810U 17039H 26073.20809151 .00000413 00000+0 11666-3 0 9999 2 42810 86.4527 330.0892 0002058 85.6322 274.5115 14.43278490461418 IRIDIUM 128 1 42811U 17039J 26073.25419806 .00000044 00000+0 86693-5 0 9993 2 42811 86.3918 64.8334 0002160 94.8241 265.3201 14.34217593456371 IRIDIUM 121 1 42812U 17039K 26073.28248847 -.00000056 00000+0 -27078-4 0 9998 2 42812 86.3983 33.3181 0002147 88.2309 271.9133 14.34217132456222 IRIDIUM 133 1 42955U 17061A 26073.00683687 .00000068 00000+0 17058-4 0 9994 2 42955 86.3919 65.0525 0002176 90.2369 269.9076 14.34217805441138 IRIDIUM 100 1 42956U 17061B 26073.07026266 .00000029 00000+0 31556-5 0 9993 2 42956 86.3918 64.9469 0002160 89.4790 270.6653 14.34217554441146 IRIDIUM 122 1 42957U 17061C 26073.03854782 .00000050 00000+0 10928-4 0 9995 2 42957 86.3915 64.9599 0002076 88.0231 272.1203 14.34217637441149 IRIDIUM 129 1 42958U 17061D 26073.06391954 .00000073 00000+0 18884-4 0 9990 2 42958 86.3918 65.0156 0002416 82.9499 277.1972 14.34217963441163 IRIDIUM 119 1 42959U 17061E 26073.03220176 .00000185 00000+0 59086-4 0 9998 2 42959 86.3918 65.0240 0002150 84.9274 275.2168 14.34219762441172 IRIDIUM 107 1 42960U 17061F 26073.26053903 .00000009 00000+0 -38151-5 0 9994 2 42960 86.3919 64.9495 0001745 90.8963 269.2433 14.34217506441212 IRIDIUM 132 1 42961U 17061G 26073.26688250 .00000053 00000+0 12035-4 0 9994 2 42961 86.3918 64.9266 0002098 89.9726 270.1711 14.34217644441219 IRIDIUM 136 1 42962U 17061H 26073.01952159 .00000039 00000+0 67105-5 0 9993 2 42962 86.3922 65.0367 0002124 87.1891 272.9548 14.34217652441196 IRIDIUM 139 1 42963U 17061J 26073.02586410 .00000017 00000+0 -10596-5 0 9997 2 42963 86.3922 65.0946 0002027 90.9216 269.2212 14.34217716441205 IRIDIUM 125 1 42964U 17061K 26073.01317726 .00000059 00000+0 13911-4 0 9997 2 42964 86.3924 65.1592 0001752 77.5275 282.6116 14.34217952441211 IRIDIUM 135 1 43070U 17083A 26073.26637611 .00000100 00000+0 28664-4 0 9993 2 43070 86.4029 1.6833 0002196 85.2663 274.8783 14.34216317430541 IRIDIUM 138 1 43071U 17083B 26073.29174919 .00000133 00000+0 40369-4 0 9996 2 43071 86.4041 1.3538 0002132 73.7689 286.3741 14.34218425430538 IRIDIUM 116 1 43072U 17083C 26073.26003716 .00000214 00000+0 69447-4 0 9998 2 43072 86.4025 1.6732 0002198 92.4985 267.6463 14.34218403430561 IRIDIUM 130 1 43073U 17083D 26073.29809149 .00000052 00000+0 11626-4 0 9992 2 43073 86.4035 1.9230 0001932 91.8745 268.2672 14.34218100430519 IRIDIUM 151 1 43074U 17083E 26073.27272252 -.00000021 00000+0 -14426-4 0 9999 2 43074 86.4024 1.7237 0002022 85.3784 274.7643 14.34217314430533 IRIDIUM 134 1 43075U 17083F 26073.31077744 .00000060 00000+0 14284-4 0 9997 2 43075 86.4028 1.7142 0002028 87.4115 272.7313 14.34217906430506 IRIDIUM 137 1 43076U 17083G 26073.25369511 .00000000 00000+0 -70776-5 0 9991 2 43076 86.4027 1.8291 0002382 92.0696 268.0773 14.34217571430563 IRIDIUM 141 1 43077U 17083H 26073.24735173 .00000241 00000+0 78992-4 0 9995 2 43077 86.4025 1.6676 0002152 82.8750 277.2691 14.34218843430564 IRIDIUM 153 1 43078U 17083J 26073.26929580 .00000138 00000+0 42292-4 0 9994 2 43078 86.4005 330.1713 0001984 77.6835 282.4583 14.34216501431673 IRIDIUM 131 1 43079U 17083K 26073.30443429 .00000165 00000+0 51686-4 0 9990 2 43079 86.4030 1.8230 0002234 83.1273 277.0177 14.34218755430508 IRIDIUM 144 1 43249U 18030A 26073.20587302 .00000052 00000+0 11331-4 0 9998 2 43249 86.4005 330.1292 0002041 87.8124 272.3306 14.34217969416521 IRIDIUM 149 1 43250U 18030B 26073.21221614 .00000289 00000+0 95976-4 0 9991 2 43250 86.4002 330.0949 0002127 84.4878 275.6561 14.34217836416546 IRIDIUM 157 1 43251U 18030C 26073.23124322 .00000104 00000+0 30110-4 0 9997 2 43251 86.4006 330.1379 0002082 83.3879 276.7553 14.34217915416527 IRIDIUM 140 1 43252U 18030D 26073.25027089 .00000022 00000+0 93721-6 0 9990 2 43252 86.4001 330.1427 0002003 86.4995 273.6430 14.34217713416585 IRIDIUM 145 1 43253U 18030E 26073.23758108 .00000236 00000+0 77192-4 0 9991 2 43253 86.4005 330.1203 0002089 95.2016 264.9419 14.34216343416519 IRIDIUM 146 1 43254U 18030F 26073.21855781 .00000080 00000+0 21683-4 0 9996 2 43254 86.4004 330.1409 0002166 89.2210 270.9234 14.34218096416522 IRIDIUM 148 1 43255U 18030G 26073.25661372 -.00000005 00000+0 -89560-5 0 9990 2 43255 86.4000 330.1665 0002017 85.5946 274.5481 14.34217507416567 IRIDIUM 142 1 43256U 18030H 26073.22490090 .00000057 00000+0 13223-4 0 9992 2 43256 86.4003 330.0724 0002080 93.4611 266.6822 14.34217666416526 IRIDIUM 150 1 43257U 18030J 26073.19318651 .00000240 00000+0 78608-4 0 9993 2 43257 86.4005 330.1989 0002050 85.8348 274.3082 14.34217398416540 IRIDIUM 143 1 43258U 18030K 26073.24392881 .00000006 00000+0 -47639-5 0 9999 2 43258 86.4008 330.2664 0002083 90.8013 269.3422 14.34217545416485 IRIDIUM 161 1 43478U 18047C 26073.18575990 .00000342 00000+0 95739-4 0 9993 2 43478 86.4493 128.2044 0002459 87.4360 272.7123 14.43277051411432 IRIDIUM 152 1 43479U 18047D 26073.21664667 .00000146 00000+0 45122-4 0 9991 2 43479 86.3965 128.0518 0002228 91.5243 268.6208 14.34217542408871 IRIDIUM 147 1 43480U 18047E 26073.15322086 .00000156 00000+0 48810-4 0 9990 2 43480 86.3966 128.0818 0002286 98.2730 261.8725 14.34217745408869 IRIDIUM 110 1 43481U 18047F 26073.22933251 -.00000004 00000+0 -86523-5 0 9999 2 43481 86.3971 128.1390 0002289 85.0406 275.1051 14.34217437408867 IRIDIUM 162 1 43482U 18047G 26073.17945532 .00000351 00000+0 98286-4 0 9990 2 43482 86.4489 128.0993 0002143 94.9812 265.1634 14.43278341411423 IRIDIUM 160 1 43569U 18061A 26073.10539928 .00000086 00000+0 23761-4 0 9994 2 43569 86.3911 96.5678 0002345 90.4632 269.6833 14.34217890399744 IRIDIUM 166 1 43570U 18061B 26073.13076945 .00000064 00000+0 15685-4 0 9996 2 43570 86.3910 96.5088 0002255 95.4526 264.6928 14.34217783399771 IRIDIUM 158 1 43571U 18061C 26073.30836231 .00000023 00000+0 10929-5 0 9990 2 43571 86.3911 96.4445 0001960 90.4123 269.7297 14.34217204399761 IRIDIUM 165 1 43572U 18061D 26073.33373228 .00000059 00000+0 14111-4 0 9991 2 43572 86.3911 96.4785 0002254 95.7030 264.4423 14.34217625399794 IRIDIUM 155 1 43573U 18061E 26073.29567679 .00000062 00000+0 14990-4 0 9991 2 43573 86.3909 96.3682 0002098 94.1674 265.9762 14.34217716399759 IRIDIUM 154 1 43574U 18061F 26073.13711251 -.00000109 00000+0 -45899-4 0 9998 2 43574 86.3915 96.5633 0002178 96.5200 263.6244 14.34217413399782 IRIDIUM 163 1 43575U 18061G 26073.32738929 .00000007 00000+0 -43896-5 0 9993 2 43575 86.3910 96.4020 0002063 91.2324 268.9108 14.34217419399782 IRIDIUM 156 1 43576U 18061H 26073.30201906 .00000051 00000+0 11020-4 0 9993 2 43576 86.3909 96.4199 0002081 95.1036 265.0397 14.34217587399774 IRIDIUM 164 1 43577U 18061J 26073.14345312 .00000112 00000+0 32819-4 0 9993 2 43577 86.3913 96.5253 0002403 94.7203 265.4268 14.34218593399792 IRIDIUM 159 1 43578U 18061K 26073.32104745 -.00000015 00000+0 -12594-4 0 9999 2 43578 86.3909 96.3894 0002242 89.2406 270.9047 14.34217265399782 IRIDIUM 180 1 43922U 19002A 26073.25077504 .00000087 00000+0 24053-4 0 9992 2 43922 86.3980 33.2585 0002246 84.4845 275.6608 14.34217990375389 IRIDIUM 176 1 43923U 19002B 26073.27608360 .00000591 00000+0 89889-4 0 9993 2 43923 86.6103 33.2044 0002516 90.7147 269.4358 14.72249279385285 IRIDIUM 168 1 43924U 19002C 26073.31420108 .00000311 00000+0 10394-3 0 9995 2 43924 86.3985 33.3066 0002156 86.5479 273.5963 14.34219399375372 IRIDIUM 173 1 43925U 19002D 26073.30151490 .00000112 00000+0 33087-4 0 9994 2 43925 86.3981 33.2048 0002050 84.8316 275.3114 14.34218170375354 IRIDIUM 169 1 43926U 19002E 26073.03039114 .00000043 00000+0 73795-5 0 9997 2 43926 86.4176 64.9698 0001372 86.6085 273.5271 14.38606059376540 IRIDIUM 172 1 43927U 19002F 26073.29517136 .00000176 00000+0 55904-4 0 9999 2 43927 86.3980 33.2147 0002300 84.2490 275.8968 14.34218446375369 IRIDIUM 175 1 43928U 19002G 26073.20357557 .00001028 00000+0 15912-3 0 9991 2 43928 86.1535 330.5199 0002774 103.0388 257.1139 14.72239516385261 IRIDIUM 171 1 43929U 19002H 26073.27614526 .00000016 00000+0 -15040-5 0 9992 2 43929 86.3988 33.5190 0002062 92.0475 268.0957 14.34217627375356 IRIDIUM 170 1 43930U 19002J 26073.28226643 .00001146 00000+0 17792-3 0 9992 2 43930 86.6101 33.2048 0002631 87.3787 272.7732 14.72246741385290 IRIDIUM 167 1 43931U 19002K 26073.26980285 -.00000127 00000+0 -52463-4 0 9995 2 43931 86.3981 33.2474 0001907 94.5104 265.6310 14.34216675375355 IRIDIUM 181 1 56726U 23068S 26073.33317590 .00000202 00000+0 53927-4 0 9997 2 56726 86.4448 96.4561 0002623 92.2542 267.8959 14.43309011148757 IRIDIUM 177 1 56727U 23068T 26073.27474873 .00001640 00000+0 21244-3 0 9992 2 56727 86.2009 13.8473 0002206 75.6991 284.4475 14.80223553152327 IRIDIUM 174 1 56728U 23068U 26072.93004800 .00001198 00000+0 18610-3 0 9995 2 56728 86.6108 33.4899 0002518 79.5214 280.6287 14.72260556152008 IRIDIUM 178 1 56729U 23068V 26073.26382710 .00000651 00000+0 82164-4 0 9991 2 56729 86.6491 65.0235 0002558 98.6532 261.4980 14.80230491152324 IRIDIUM 179 1 56730U 23068W 26073.25844820 .00001234 00000+0 15892-3 0 9998 2 56730 86.6725 73.7310 0002355 94.3659 265.7831 14.80230868152324